Year,Month,Day,Hour,Minute,Value (Times are PST for temperature in C)
2019,02,03,00,00,5.20
2019,02,03,00,01,5.20
2019,02,03,00,02,5.20
2019,02,03,00,03,5.20
2019,02,03,00,04,5.20
2019,02,03,00,05,5.20
2019,02,03,00,06,5.20
2019,02,03,00,07,5.20
2019,02,03,00,08,5.20
2019,02,03,00,09,5.30
2019,02,03,00,10,5.30
2019,02,03,00,11,5.30
2019,02,03,00,12,5.30
2019,02,03,00,13,5.30
2019,02,03,00,14,5.30
2019,02,03,00,15,5.30
2019,02,03,00,16,5.30
2019,02,03,00,17,5.30
2019,02,03,00,18,5.30
2019,02,03,00,19,5.30
2019,02,03,00,20,5.20
2019,02,03,00,21,5.20
2019,02,03,00,22,5.20
2019,02,03,00,23,5.20
2019,02,03,00,24,5.10
2019,02,03,00,25,5.20
2019,02,03,00,26,5.20
2019,02,03,00,27,5.20
2019,02,03,00,28,5.20
2019,02,03,00,29,5.10
2019,02,03,00,30,5.10
2019,02,03,00,31,5.10
2019,02,03,00,32,5.10
2019,02,03,00,33,5.10
2019,02,03,00,34,5.10
2019,02,03,00,35,5.10
2019,02,03,00,36,5.10
2019,02,03,00,37,5.10
2019,02,03,00,38,5.10
2019,02,03,00,39,5.10
2019,02,03,00,40,5.10
2019,02,03,00,41,5.10
2019,02,03,00,42,5.00
2019,02,03,00,43,5.00
2019,02,03,00,44,5.10
2019,02,03,00,45,5.10
2019,02,03,00,46,5.10
2019,02,03,00,47,5.10
2019,02,03,00,48,5.10
2019,02,03,00,49,5.10
2019,02,03,00,50,5.10
2019,02,03,00,51,5.10
2019,02,03,00,52,5.10
2019,02,03,00,53,5.00
2019,02,03,00,54,5.00
2019,02,03,00,55,5.00
2019,02,03,00,56,5.00
2019,02,03,00,57,5.00
2019,02,03,00,58,5.00
2019,02,03,00,59,4.90
2019,02,03,01,00,4.90
2019,02,03,01,01,4.90
2019,02,03,01,02,5.00
2019,02,03,01,03,5.00
2019,02,03,01,04,5.10
2019,02,03,01,05,5.10
2019,02,03,01,06,5.10
2019,02,03,01,07,5.10
2019,02,03,01,08,5.10
2019,02,03,01,09,5.10
2019,02,03,01,10,5.10
2019,02,03,01,11,5.00
2019,02,03,01,12,5.00
2019,02,03,01,13,5.00
2019,02,03,01,14,5.00
2019,02,03,01,15,5.00
2019,02,03,01,16,5.00
2019,02,03,01,17,4.90
2019,02,03,01,18,4.90
2019,02,03,01,19,4.90
2019,02,03,01,20,4.90
2019,02,03,01,21,4.80
2019,02,03,01,22,4.80
2019,02,03,01,23,4.80
2019,02,03,01,24,4.80
2019,02,03,01,25,4.90
2019,02,03,01,26,4.90
2019,02,03,01,27,4.90
2019,02,03,01,28,4.90
2019,02,03,01,29,4.90
2019,02,03,01,30,4.90
2019,02,03,01,31,4.90
2019,02,03,01,32,5.00
2019,02,03,01,33,5.00
2019,02,03,01,34,5.00
2019,02,03,01,35,5.00
2019,02,03,01,36,5.00
2019,02,03,01,37,5.00
2019,02,03,01,38,5.00
2019,02,03,01,39,5.00
2019,02,03,01,40,5.00
2019,02,03,01,41,5.00
2019,02,03,01,42,5.00
2019,02,03,01,43,5.00
2019,02,03,01,44,5.00
2019,02,03,01,45,5.00
2019,02,03,01,46,5.00
2019,02,03,01,47,5.00
2019,02,03,01,48,5.00
2019,02,03,01,49,5.00
2019,02,03,01,50,4.90
2019,02,03,01,51,4.90
2019,02,03,01,52,4.90
2019,02,03,01,53,4.90
2019,02,03,01,54,4.90
2019,02,03,01,55,4.90
2019,02,03,01,56,4.90
2019,02,03,01,57,4.90
2019,02,03,01,58,4.80
2019,02,03,01,59,4.80
2019,02,03,02,00,4.80
2019,02,03,02,01,4.80
2019,02,03,02,02,4.80
2019,02,03,02,03,4.80
2019,02,03,02,04,4.80
2019,02,03,02,05,4.80
2019,02,03,02,06,4.80
2019,02,03,02,07,4.80
2019,02,03,02,08,4.80
2019,02,03,02,09,4.80
2019,02,03,02,10,4.80
2019,02,03,02,11,4.80
2019,02,03,02,12,4.70
2019,02,03,02,13,4.70
2019,02,03,02,14,4.70
2019,02,03,02,15,4.70
2019,02,03,02,16,4.70
2019,02,03,02,17,4.70
2019,02,03,02,18,4.60
2019,02,03,02,19,4.70
2019,02,03,02,20,4.60
2019,02,03,02,21,4.60
2019,02,03,02,22,4.60
2019,02,03,02,23,4.70
2019,02,03,02,24,4.70
2019,02,03,02,25,4.70
2019,02,03,02,26,4.70
2019,02,03,02,27,4.70
2019,02,03,02,28,4.70
2019,02,03,02,29,4.70
2019,02,03,02,30,4.60
2019,02,03,02,31,4.60
2019,02,03,02,32,4.60
2019,02,03,02,33,4.60
2019,02,03,02,34,4.60
2019,02,03,02,35,4.60
2019,02,03,02,36,4.60
2019,02,03,02,37,4.60
2019,02,03,02,38,4.60
2019,02,03,02,39,4.60
2019,02,03,02,40,4.50
2019,02,03,02,41,4.50
2019,02,03,02,42,4.50
2019,02,03,02,43,4.50
2019,02,03,02,44,4.50
2019,02,03,02,45,4.50
2019,02,03,02,46,4.50
2019,02,03,02,47,4.50
2019,02,03,02,48,4.50
2019,02,03,02,49,4.50
2019,02,03,02,50,4.50
2019,02,03,02,51,4.60
2019,02,03,02,52,4.50
2019,02,03,02,53,4.50
2019,02,03,02,54,4.50
2019,02,03,02,55,4.50
2019,02,03,02,56,4.50
2019,02,03,02,57,4.50
2019,02,03,02,58,4.50
2019,02,03,02,59,4.50
2019,02,03,03,00,4.50
2019,02,03,03,01,4.50
2019,02,03,03,02,4.60
2019,02,03,03,03,4.60
2019,02,03,03,04,4.60
2019,02,03,03,05,4.60
2019,02,03,03,06,4.60
2019,02,03,03,07,4.60
2019,02,03,03,08,4.60
2019,02,03,03,09,4.60
2019,02,03,03,10,4.60
2019,02,03,03,11,4.60
2019,02,03,03,12,4.60
2019,02,03,03,13,4.50
2019,02,03,03,14,4.50
2019,02,03,03,15,4.50
2019,02,03,03,16,4.50
2019,02,03,03,17,4.40
2019,02,03,03,18,4.50
2019,02,03,03,19,4.50
2019,02,03,03,20,4.50
2019,02,03,03,21,4.40
2019,02,03,03,22,4.50
2019,02,03,03,23,4.40
2019,02,03,03,24,4.40
2019,02,03,03,25,4.40
2019,02,03,03,26,4.40
2019,02,03,03,27,4.40
2019,02,03,03,28,4.40
2019,02,03,03,29,4.40
2019,02,03,03,30,4.40
2019,02,03,03,31,4.40
2019,02,03,03,32,4.40
2019,02,03,03,33,4.40
2019,02,03,03,34,4.40
2019,02,03,03,35,4.40
2019,02,03,03,36,4.30
2019,02,03,03,37,4.30
2019,02,03,03,38,4.30
2019,02,03,03,39,4.30
2019,02,03,03,40,4.30
2019,02,03,03,41,4.30
2019,02,03,03,42,4.30
2019,02,03,03,43,4.20
2019,02,03,03,44,4.20
2019,02,03,03,45,4.20
2019,02,03,03,46,4.20
2019,02,03,03,47,4.10
2019,02,03,03,48,4.10
2019,02,03,03,49,4.10
2019,02,03,03,50,4.10
2019,02,03,03,51,4.00
2019,02,03,03,52,4.00
2019,02,03,03,53,3.90
2019,02,03,03,54,3.90
2019,02,03,03,55,3.90
2019,02,03,03,56,3.90
2019,02,03,03,57,3.80
2019,02,03,03,58,3.80
2019,02,03,03,59,3.80
2019,02,03,04,00,3.80
2019,02,03,04,01,3.70
2019,02,03,04,02,3.70
2019,02,03,04,03,3.70
2019,02,03,04,04,3.80
2019,02,03,04,05,3.80
2019,02,03,04,06,3.80
2019,02,03,04,07,3.80
2019,02,03,04,08,3.80
2019,02,03,04,09,3.80
2019,02,03,04,10,3.80
2019,02,03,04,11,3.80
2019,02,03,04,12,3.90
2019,02,03,04,13,3.90
2019,02,03,04,14,3.90
2019,02,03,04,15,3.90
2019,02,03,04,16,3.90
2019,02,03,04,17,3.80
2019,02,03,04,18,3.80
2019,02,03,04,19,3.80
2019,02,03,04,20,3.80
2019,02,03,04,21,3.80
2019,02,03,04,22,3.80
2019,02,03,04,23,3.80
2019,02,03,04,24,3.80
2019,02,03,04,25,3.90
2019,02,03,04,26,3.90
2019,02,03,04,27,3.90
2019,02,03,04,28,3.90
2019,02,03,04,29,4.00
2019,02,03,04,30,4.00
2019,02,03,04,31,4.00
2019,02,03,04,32,4.00
2019,02,03,04,33,4.00
2019,02,03,04,34,4.00
2019,02,03,04,35,4.00
2019,02,03,04,36,4.00
2019,02,03,04,37,4.00
2019,02,03,04,38,4.00
2019,02,03,04,39,4.00
2019,02,03,04,40,4.00
2019,02,03,04,41,4.00
2019,02,03,04,42,4.00
2019,02,03,04,43,4.00
2019,02,03,04,44,4.00
2019,02,03,04,45,4.00
2019,02,03,04,46,4.00
2019,02,03,04,47,4.00
2019,02,03,04,48,4.00
2019,02,03,04,49,4.00
2019,02,03,04,50,4.00
2019,02,03,04,51,4.10
2019,02,03,04,52,4.10
2019,02,03,04,53,4.10
2019,02,03,04,54,4.10
2019,02,03,04,55,4.10
2019,02,03,04,56,4.10
2019,02,03,04,57,4.20
2019,02,03,04,58,4.20
2019,02,03,04,59,4.20
2019,02,03,05,00,4.20
2019,02,03,05,01,4.20
2019,02,03,05,02,4.20
2019,02,03,05,03,4.20
2019,02,03,05,04,4.20
2019,02,03,05,05,4.20
2019,02,03,05,06,4.20
2019,02,03,05,07,4.30
2019,02,03,05,08,4.30
2019,02,03,05,09,4.30
2019,02,03,05,10,4.30
2019,02,03,05,11,4.30
2019,02,03,05,12,4.30
2019,02,03,05,13,4.30
2019,02,03,05,14,4.30
2019,02,03,05,15,4.30
2019,02,03,05,16,4.30
2019,02,03,05,17,4.30
2019,02,03,05,18,4.30
2019,02,03,05,19,4.30
2019,02,03,05,20,4.30
2019,02,03,05,21,4.30
2019,02,03,05,22,4.30
2019,02,03,05,23,4.40
2019,02,03,05,24,4.40
2019,02,03,05,25,4.40
2019,02,03,05,26,4.40
2019,02,03,05,27,4.50
2019,02,03,05,28,4.40
2019,02,03,05,29,4.40
2019,02,03,05,30,4.30
2019,02,03,05,31,4.30
2019,02,03,05,32,4.30
2019,02,03,05,33,4.20
2019,02,03,05,34,4.20
2019,02,03,05,35,4.10
2019,02,03,05,36,4.10
2019,02,03,05,37,4.00
2019,02,03,05,38,4.00
2019,02,03,05,39,4.00
2019,02,03,05,40,3.90
2019,02,03,05,41,3.90
2019,02,03,05,42,3.90
2019,02,03,05,43,3.90
2019,02,03,05,44,3.90
2019,02,03,05,45,3.90
2019,02,03,05,46,3.90
2019,02,03,05,47,3.90
2019,02,03,05,48,3.90
2019,02,03,05,49,3.90
2019,02,03,05,50,4.00
2019,02,03,05,51,4.20
2019,02,03,05,52,4.30
2019,02,03,05,53,4.40
2019,02,03,05,54,4.50
2019,02,03,05,55,4.60
2019,02,03,05,56,4.70
2019,02,03,05,57,4.70
2019,02,03,05,58,4.70
2019,02,03,05,59,4.80
2019,02,03,06,00,4.80
2019,02,03,06,01,4.80
2019,02,03,06,02,4.80
2019,02,03,06,03,4.80
2019,02,03,06,04,4.90
2019,02,03,06,05,4.90
2019,02,03,06,06,4.90
2019,02,03,06,07,5.00
2019,02,03,06,08,5.00
2019,02,03,06,09,5.10
2019,02,03,06,10,5.10
2019,02,03,06,11,5.10
2019,02,03,06,12,5.10
2019,02,03,06,13,5.10
2019,02,03,06,14,5.10
2019,02,03,06,15,5.10
2019,02,03,06,16,5.20
2019,02,03,06,17,5.20
2019,02,03,06,18,5.30
2019,02,03,06,19,5.30
2019,02,03,06,20,5.20
2019,02,03,06,21,5.20
2019,02,03,06,22,5.30
2019,02,03,06,23,5.10
2019,02,03,06,24,5.10
2019,02,03,06,25,5.00
2019,02,03,06,26,4.90
2019,02,03,06,27,4.90
2019,02,03,06,28,4.90
2019,02,03,06,29,4.90
2019,02,03,06,30,4.90
2019,02,03,06,31,4.80
2019,02,03,06,32,4.80
2019,02,03,06,33,4.70
2019,02,03,06,34,4.70
2019,02,03,06,35,4.70
2019,02,03,06,36,4.70
2019,02,03,06,37,4.80
2019,02,03,06,38,4.90
2019,02,03,06,39,4.90
2019,02,03,06,40,4.80
2019,02,03,06,41,4.70
2019,02,03,06,42,4.80
2019,02,03,06,43,4.90
2019,02,03,06,44,4.90
2019,02,03,06,45,5.00
2019,02,03,06,46,5.00
2019,02,03,06,47,4.90
2019,02,03,06,48,5.00
2019,02,03,06,49,5.00
2019,02,03,06,50,5.00
2019,02,03,06,51,5.00
2019,02,03,06,52,5.00
2019,02,03,06,53,4.90
2019,02,03,06,54,4.90
2019,02,03,06,55,4.90
2019,02,03,06,56,5.00
2019,02,03,06,57,5.00
2019,02,03,06,58,5.00
2019,02,03,06,59,5.10
2019,02,03,07,00,5.00
2019,02,03,07,01,5.00
2019,02,03,07,02,5.00
2019,02,03,07,03,5.10
2019,02,03,07,04,5.10
2019,02,03,07,05,5.10
2019,02,03,07,06,5.10
2019,02,03,07,07,5.10
2019,02,03,07,08,5.10
2019,02,03,07,09,5.10
2019,02,03,07,10,5.10
2019,02,03,07,11,5.10
2019,02,03,07,12,5.10
2019,02,03,07,13,5.00
2019,02,03,07,14,5.10
2019,02,03,07,15,5.00
2019,02,03,07,16,5.00
2019,02,03,07,17,4.90
2019,02,03,07,18,4.90
2019,02,03,07,19,4.80
2019,02,03,07,20,4.80
2019,02,03,07,21,4.80
2019,02,03,07,22,4.80
2019,02,03,07,23,4.90
2019,02,03,07,24,4.80
2019,02,03,07,25,4.70
2019,02,03,07,26,4.70
2019,02,03,07,27,4.70
2019,02,03,07,28,4.70
2019,02,03,07,29,4.70
2019,02,03,07,30,4.70
2019,02,03,07,31,4.70
2019,02,03,07,32,4.70
2019,02,03,07,33,4.80
2019,02,03,07,34,4.80
2019,02,03,07,35,4.70
2019,02,03,07,36,4.70
2019,02,03,07,37,4.70
2019,02,03,07,38,4.80
2019,02,03,07,39,4.70
2019,02,03,07,40,4.60
2019,02,03,07,41,4.60
2019,02,03,07,42,4.70
2019,02,03,07,43,4.70
2019,02,03,07,44,4.70
2019,02,03,07,45,4.70
2019,02,03,07,46,4.70
2019,02,03,07,47,4.70
2019,02,03,07,48,4.80
2019,02,03,07,49,4.70
2019,02,03,07,50,4.60
2019,02,03,07,51,4.50
2019,02,03,07,52,4.50
2019,02,03,07,53,4.50
2019,02,03,07,54,4.50
2019,02,03,07,55,4.50
2019,02,03,07,56,4.40
2019,02,03,07,57,4.40
2019,02,03,07,58,4.40
2019,02,03,07,59,4.50
2019,02,03,08,00,4.50
2019,02,03,08,01,4.60
2019,02,03,08,02,4.70
2019,02,03,08,03,4.60
2019,02,03,08,04,4.40
2019,02,03,08,05,4.30
2019,02,03,08,06,4.30
2019,02,03,08,07,4.20
2019,02,03,08,08,4.10
2019,02,03,08,09,4.10
2019,02,03,08,10,4.00
2019,02,03,08,11,4.10
2019,02,03,08,12,4.00
2019,02,03,08,13,3.90
2019,02,03,08,14,3.90
2019,02,03,08,15,3.80
2019,02,03,08,16,3.90
2019,02,03,08,17,4.00
2019,02,03,08,18,3.90
2019,02,03,08,19,3.90
2019,02,03,08,20,4.00
2019,02,03,08,21,3.80
2019,02,03,08,22,3.70
2019,02,03,08,23,3.60
2019,02,03,08,24,3.50
2019,02,03,08,25,3.50
2019,02,03,08,26,3.50
2019,02,03,08,27,3.40
2019,02,03,08,28,3.20
2019,02,03,08,29,3.10
2019,02,03,08,30,3.00
2019,02,03,08,31,2.90
2019,02,03,08,32,2.80
2019,02,03,08,33,2.70
2019,02,03,08,34,2.90
2019,02,03,08,35,2.90
2019,02,03,08,36,3.00
2019,02,03,08,37,3.20
2019,02,03,08,38,3.10
2019,02,03,08,39,3.20
2019,02,03,08,40,3.20
2019,02,03,08,41,3.10
2019,02,03,08,42,3.00
2019,02,03,08,43,3.00
2019,02,03,08,44,2.90
2019,02,03,08,45,2.70
2019,02,03,08,46,2.70
2019,02,03,08,47,2.70
2019,02,03,08,48,2.80
2019,02,03,08,49,2.90
2019,02,03,08,50,2.90
2019,02,03,08,51,3.00
2019,02,03,08,52,3.20
2019,02,03,08,53,3.20
2019,02,03,08,54,3.20
2019,02,03,08,55,3.30
2019,02,03,08,56,3.30
2019,02,03,08,57,3.20
2019,02,03,08,58,3.10
2019,02,03,08,59,3.30
2019,02,03,09,00,3.40
2019,02,03,09,01,3.30
2019,02,03,09,02,3.30
2019,02,03,09,03,3.30
2019,02,03,09,04,3.30
2019,02,03,09,05,3.40
2019,02,03,09,06,3.40
2019,02,03,09,07,3.30
2019,02,03,09,08,3.40
2019,02,03,09,09,3.40
2019,02,03,09,10,3.40
2019,02,03,09,11,3.40
2019,02,03,09,12,3.30
2019,02,03,09,13,3.30
2019,02,03,09,14,3.30
2019,02,03,09,15,3.30
2019,02,03,09,16,3.40
2019,02,03,09,17,3.50
2019,02,03,09,18,3.40
2019,02,03,09,19,3.50
2019,02,03,09,20,3.50
2019,02,03,09,21,3.50
2019,02,03,09,22,3.40
2019,02,03,09,23,3.30
2019,02,03,09,24,3.40
2019,02,03,09,25,3.40
2019,02,03,09,26,3.40
2019,02,03,09,27,3.40
2019,02,03,09,28,3.40
2019,02,03,09,29,3.40
2019,02,03,09,30,3.30
2019,02,03,09,31,3.30
2019,02,03,09,32,3.40
2019,02,03,09,33,3.30
2019,02,03,09,34,3.30
2019,02,03,09,35,3.30
2019,02,03,09,36,3.30
2019,02,03,09,37,3.30
2019,02,03,09,38,3.40
2019,02,03,09,39,3.40
2019,02,03,09,40,3.30
2019,02,03,09,41,3.30
2019,02,03,09,42,3.30
2019,02,03,09,43,3.30
2019,02,03,09,44,3.30
2019,02,03,09,45,3.30
2019,02,03,09,46,3.30
2019,02,03,09,47,3.20
2019,02,03,09,48,3.30
2019,02,03,09,49,3.20
2019,02,03,09,50,3.20
2019,02,03,09,51,3.20
2019,02,03,09,52,3.20
2019,02,03,09,53,3.20
2019,02,03,09,54,3.10
2019,02,03,09,55,3.10
2019,02,03,09,56,3.20
2019,02,03,09,57,3.30
2019,02,03,09,58,3.20
2019,02,03,09,59,3.10
2019,02,03,10,00,3.10
2019,02,03,10,01,3.00
2019,02,03,10,02,3.00
2019,02,03,10,03,3.00
2019,02,03,10,04,2.90
2019,02,03,10,05,2.90
2019,02,03,10,06,2.80
2019,02,03,10,07,2.80
2019,02,03,10,08,2.70
2019,02,03,10,09,2.70
2019,02,03,10,10,2.70
2019,02,03,10,11,2.70
2019,02,03,10,12,2.70
2019,02,03,10,13,2.70
2019,02,03,10,14,2.70
2019,02,03,10,15,2.70
2019,02,03,10,16,2.70
2019,02,03,10,17,2.60
2019,02,03,10,18,2.60
2019,02,03,10,19,2.70
2019,02,03,10,20,2.70
2019,02,03,10,21,2.70
2019,02,03,10,22,2.70
2019,02,03,10,23,2.70
2019,02,03,10,24,2.70
2019,02,03,10,25,2.60
2019,02,03,10,26,2.60
2019,02,03,10,27,2.50
2019,02,03,10,28,2.40
2019,02,03,10,29,2.40
2019,02,03,10,30,2.40
2019,02,03,10,31,2.40
2019,02,03,10,32,2.50
2019,02,03,10,33,2.50
2019,02,03,10,34,2.50
2019,02,03,10,35,2.60
2019,02,03,10,36,2.60
2019,02,03,10,37,2.60
2019,02,03,10,38,2.60
2019,02,03,10,39,2.60
2019,02,03,10,40,2.70
2019,02,03,10,41,2.60
2019,02,03,10,42,2.60
2019,02,03,10,43,2.70
2019,02,03,10,44,2.70
2019,02,03,10,45,2.80
2019,02,03,10,46,2.80
2019,02,03,10,47,2.80
2019,02,03,10,48,2.80
2019,02,03,10,49,2.90
2019,02,03,10,50,2.80
2019,02,03,10,51,2.70
2019,02,03,10,52,2.70
2019,02,03,10,53,2.80
2019,02,03,10,54,2.80
2019,02,03,10,55,2.80
2019,02,03,10,56,2.90
2019,02,03,10,57,3.00
2019,02,03,10,58,3.10
2019,02,03,10,59,3.00
2019,02,03,11,00,2.90
2019,02,03,11,01,2.90
2019,02,03,11,02,2.90
2019,02,03,11,03,2.90
2019,02,03,11,04,3.00
2019,02,03,11,05,3.00
2019,02,03,11,06,3.00
2019,02,03,11,07,3.00
2019,02,03,11,08,3.00
2019,02,03,11,09,3.10
2019,02,03,11,10,3.00
2019,02,03,11,11,2.90
2019,02,03,11,12,2.90
2019,02,03,11,13,2.90
2019,02,03,11,14,2.90
2019,02,03,11,15,2.90
2019,02,03,11,16,2.90
2019,02,03,11,17,2.80
2019,02,03,11,18,2.80
2019,02,03,11,19,2.80
2019,02,03,11,20,2.80
2019,02,03,11,21,2.80
2019,02,03,11,22,2.90
2019,02,03,11,23,2.90
2019,02,03,11,24,2.90
2019,02,03,11,25,2.90
2019,02,03,11,26,2.90
2019,02,03,11,27,2.80
2019,02,03,11,28,2.80
2019,02,03,11,29,2.80
2019,02,03,11,30,2.80
2019,02,03,11,31,2.80
2019,02,03,11,32,2.80
2019,02,03,11,33,2.90
2019,02,03,11,34,2.90
2019,02,03,11,35,2.90
2019,02,03,11,36,2.80
2019,02,03,11,37,2.80
2019,02,03,11,38,2.90
2019,02,03,11,39,2.90
2019,02,03,11,40,2.90
2019,02,03,11,41,2.90
2019,02,03,11,42,2.90
2019,02,03,11,43,2.90
2019,02,03,11,44,2.90
2019,02,03,11,45,2.90
2019,02,03,11,46,2.90
2019,02,03,11,47,3.00
2019,02,03,11,48,2.90
2019,02,03,11,49,2.90
2019,02,03,11,50,2.90
2019,02,03,11,51,3.00
2019,02,03,11,52,3.00
2019,02,03,11,53,3.10
2019,02,03,11,54,3.20
2019,02,03,11,55,3.20
2019,02,03,11,56,3.10
2019,02,03,11,57,3.00
2019,02,03,11,58,3.00
2019,02,03,11,59,3.00
2019,02,03,12,00,3.00
2019,02,03,12,01,3.10
2019,02,03,12,02,3.20
2019,02,03,12,03,3.10
2019,02,03,12,04,3.00
2019,02,03,12,05,2.90
2019,02,03,12,06,2.90
2019,02,03,12,07,2.90
2019,02,03,12,08,2.90
2019,02,03,12,09,3.00
2019,02,03,12,10,3.00
2019,02,03,12,11,3.00
2019,02,03,12,12,3.00
2019,02,03,12,13,2.90
2019,02,03,12,14,2.90
2019,02,03,12,15,2.90
2019,02,03,12,16,2.90
2019,02,03,12,17,2.90
2019,02,03,12,18,2.80
2019,02,03,12,19,2.80
2019,02,03,12,20,2.60
2019,02,03,12,21,2.60
2019,02,03,12,22,2.70
2019,02,03,12,23,2.70
2019,02,03,12,24,2.70
2019,02,03,12,25,2.70
2019,02,03,12,26,2.90
2019,02,03,12,27,2.90
2019,02,03,12,28,2.70
2019,02,03,12,29,2.80
2019,02,03,12,30,2.80
2019,02,03,12,31,2.80
2019,02,03,12,32,2.80
2019,02,03,12,33,2.80
2019,02,03,12,34,2.80
2019,02,03,12,35,2.70
2019,02,03,12,36,2.60
2019,02,03,12,37,2.80
2019,02,03,12,38,2.70
2019,02,03,12,39,2.60
2019,02,03,12,40,2.60
2019,02,03,12,41,2.60
2019,02,03,12,42,2.60
2019,02,03,12,43,2.60
2019,02,03,12,44,2.60
2019,02,03,12,45,2.60
2019,02,03,12,46,2.70
2019,02,03,12,47,2.70
2019,02,03,12,48,2.70
2019,02,03,12,49,2.70
2019,02,03,12,50,2.70
2019,02,03,12,51,2.60
2019,02,03,12,52,2.60
2019,02,03,12,53,2.60
2019,02,03,12,54,2.60
2019,02,03,12,55,2.50
2019,02,03,12,56,2.60
2019,02,03,12,57,2.60
2019,02,03,12,58,2.60
2019,02,03,12,59,2.60
2019,02,03,13,00,2.60
2019,02,03,13,01,2.60
2019,02,03,13,02,2.60
2019,02,03,13,03,2.60
2019,02,03,13,04,2.70
2019,02,03,13,05,2.60
2019,02,03,13,06,2.60
2019,02,03,13,07,2.60
2019,02,03,13,08,2.70
2019,02,03,13,09,2.70
2019,02,03,13,10,2.70
2019,02,03,13,11,2.60
2019,02,03,13,12,2.70
2019,02,03,13,13,2.70
2019,02,03,13,14,2.60
2019,02,03,13,15,2.50
2019,02,03,13,16,2.60
2019,02,03,13,17,2.50
2019,02,03,13,18,2.50
2019,02,03,13,19,2.40
2019,02,03,13,20,2.40
2019,02,03,13,21,2.40
2019,02,03,13,22,2.40
2019,02,03,13,23,2.30
2019,02,03,13,24,2.30
2019,02,03,13,25,2.30
2019,02,03,13,26,2.30
2019,02,03,13,27,2.30
2019,02,03,13,28,2.30
2019,02,03,13,29,2.20
2019,02,03,13,30,2.30
2019,02,03,13,31,2.30
2019,02,03,13,32,2.30
2019,02,03,13,33,2.30
2019,02,03,13,34,2.30
2019,02,03,13,35,2.30
2019,02,03,13,36,2.20
2019,02,03,13,37,2.20
2019,02,03,13,38,2.20
2019,02,03,13,39,2.20
2019,02,03,13,40,2.20
2019,02,03,13,41,2.20
2019,02,03,13,42,2.20
2019,02,03,13,43,2.10
2019,02,03,13,44,2.10
2019,02,03,13,45,2.10
2019,02,03,13,46,2.10
2019,02,03,13,47,2.00
2019,02,03,13,48,2.00
2019,02,03,13,49,2.00
2019,02,03,13,50,2.00
2019,02,03,13,51,2.00
2019,02,03,13,52,1.90
2019,02,03,13,53,2.00
2019,02,03,13,54,2.00
2019,02,03,13,55,2.00
2019,02,03,13,56,2.10
2019,02,03,13,57,2.10
2019,02,03,13,58,2.10
2019,02,03,13,59,2.20
2019,02,03,14,00,2.20
2019,02,03,14,01,2.20
2019,02,03,14,02,2.20
2019,02,03,14,03,2.20
2019,02,03,14,04,2.20
2019,02,03,14,05,2.20
2019,02,03,14,06,2.20
2019,02,03,14,07,2.10
2019,02,03,14,08,2.10
2019,02,03,14,09,2.10
2019,02,03,14,10,2.10
2019,02,03,14,11,2.10
2019,02,03,14,12,2.10
2019,02,03,14,13,2.10
2019,02,03,14,14,2.10
2019,02,03,14,15,2.00
2019,02,03,14,16,2.10
2019,02,03,14,17,2.20
2019,02,03,14,18,2.20
2019,02,03,14,19,2.30
2019,02,03,14,20,2.30
2019,02,03,14,21,2.30
2019,02,03,14,22,2.30
2019,02,03,14,23,2.40
2019,02,03,14,24,2.40
2019,02,03,14,25,2.40
2019,02,03,14,26,2.30
2019,02,03,14,27,2.30
2019,02,03,14,28,2.30
2019,02,03,14,29,2.30
2019,02,03,14,30,2.40
2019,02,03,14,31,2.40
2019,02,03,14,32,2.40
2019,02,03,14,33,2.40
2019,02,03,14,34,2.30
2019,02,03,14,35,2.40
2019,02,03,14,36,2.40
2019,02,03,14,37,2.30
2019,02,03,14,38,2.40
2019,02,03,14,39,2.40
2019,02,03,14,40,2.40
2019,02,03,14,41,2.30
2019,02,03,14,42,2.30
2019,02,03,14,43,2.30
2019,02,03,14,44,2.30
2019,02,03,14,45,2.30
2019,02,03,14,46,2.40
2019,02,03,14,47,2.50
2019,02,03,14,48,2.50
2019,02,03,14,49,2.50
2019,02,03,14,50,2.40
2019,02,03,14,51,2.40
2019,02,03,14,52,2.40
2019,02,03,14,53,2.40
2019,02,03,14,54,2.40
2019,02,03,14,55,2.50
2019,02,03,14,56,2.50
2019,02,03,14,57,2.40
2019,02,03,14,58,2.40
2019,02,03,14,59,2.40
2019,02,03,15,00,2.40
2019,02,03,15,01,2.40
2019,02,03,15,02,2.30
2019,02,03,15,03,2.30
2019,02,03,15,04,2.30
2019,02,03,15,05,2.40
2019,02,03,15,06,2.40
2019,02,03,15,07,2.30
2019,02,03,15,08,2.30
2019,02,03,15,09,2.30
2019,02,03,15,10,2.30
2019,02,03,15,11,2.40
2019,02,03,15,12,2.40
2019,02,03,15,13,2.40
2019,02,03,15,14,2.40
2019,02,03,15,15,2.40
2019,02,03,15,16,2.40
2019,02,03,15,17,2.50
2019,02,03,15,18,2.50
2019,02,03,15,19,2.50
2019,02,03,15,20,2.50
2019,02,03,15,21,2.50
2019,02,03,15,22,2.50
2019,02,03,15,23,2.50
2019,02,03,15,24,2.50
2019,02,03,15,25,2.40
2019,02,03,15,26,2.40
2019,02,03,15,27,2.50
2019,02,03,15,28,2.60
2019,02,03,15,29,2.60
2019,02,03,15,30,2.60
2019,02,03,15,31,2.70
2019,02,03,15,32,2.80
2019,02,03,15,33,2.80
2019,02,03,15,34,2.80
2019,02,03,15,35,2.70
2019,02,03,15,36,2.70
2019,02,03,15,37,2.80
2019,02,03,15,38,2.70
2019,02,03,15,39,2.70
2019,02,03,15,40,2.60
2019,02,03,15,41,2.60
2019,02,03,15,42,2.60
2019,02,03,15,43,2.50
2019,02,03,15,44,2.50
2019,02,03,15,45,2.50
2019,02,03,15,46,2.50
2019,02,03,15,47,2.50
2019,02,03,15,48,2.60
2019,02,03,15,49,2.50
2019,02,03,15,50,2.50
2019,02,03,15,51,2.60
2019,02,03,15,52,2.70
2019,02,03,15,53,2.70
2019,02,03,15,54,2.70
2019,02,03,15,55,2.70
2019,02,03,15,56,2.70
2019,02,03,15,57,2.70
2019,02,03,15,58,2.70
2019,02,03,15,59,2.80
2019,02,03,16,00,2.80
2019,02,03,16,01,2.80
2019,02,03,16,02,2.80
2019,02,03,16,03,2.80
2019,02,03,16,04,2.80
2019,02,03,16,05,2.80
2019,02,03,16,06,2.80
2019,02,03,16,07,2.80
2019,02,03,16,08,2.80
2019,02,03,16,09,2.80
2019,02,03,16,10,2.80
2019,02,03,16,11,2.80
2019,02,03,16,12,2.70
2019,02,03,16,13,2.70
2019,02,03,16,14,2.70
2019,02,03,16,15,2.60
2019,02,03,16,16,2.60
2019,02,03,16,17,2.50
2019,02,03,16,18,2.50
2019,02,03,16,19,2.50
2019,02,03,16,20,2.50
2019,02,03,16,21,2.50
2019,02,03,16,22,2.50
2019,02,03,16,23,2.40
2019,02,03,16,24,2.50
2019,02,03,16,25,2.50
2019,02,03,16,26,2.40
2019,02,03,16,27,2.40
2019,02,03,16,28,2.40
2019,02,03,16,29,2.40
2019,02,03,16,30,2.40
2019,02,03,16,31,2.40
2019,02,03,16,32,2.50
2019,02,03,16,33,2.40
2019,02,03,16,34,2.40
2019,02,03,16,35,2.40
2019,02,03,16,36,2.50
2019,02,03,16,37,2.50
2019,02,03,16,38,2.50
2019,02,03,16,39,2.60
2019,02,03,16,40,2.60
2019,02,03,16,41,2.60
2019,02,03,16,42,2.60
2019,02,03,16,43,2.80
2019,02,03,16,44,2.90
2019,02,03,16,45,3.00
2019,02,03,16,46,2.90
2019,02,03,16,47,2.80
2019,02,03,16,48,2.90
2019,02,03,16,49,3.00
2019,02,03,16,50,3.00
2019,02,03,16,51,2.90
2019,02,03,16,52,2.90
2019,02,03,16,53,2.80
2019,02,03,16,54,2.80
2019,02,03,16,55,2.80
2019,02,03,16,56,2.70
2019,02,03,16,57,2.70
2019,02,03,16,58,2.60
2019,02,03,16,59,2.60
2019,02,03,17,00,2.60
2019,02,03,17,01,2.60
2019,02,03,17,02,2.60
2019,02,03,17,03,2.60
2019,02,03,17,04,2.60
2019,02,03,17,05,2.60
2019,02,03,17,06,2.70
2019,02,03,17,07,2.70
2019,02,03,17,08,2.80
2019,02,03,17,09,2.90
2019,02,03,17,10,2.80
2019,02,03,17,11,2.80
2019,02,03,17,12,2.70
2019,02,03,17,13,2.60
2019,02,03,17,14,2.60
2019,02,03,17,15,2.50
2019,02,03,17,16,2.40
2019,02,03,17,17,2.30
2019,02,03,17,18,2.30
2019,02,03,17,19,2.20
2019,02,03,17,20,2.20
2019,02,03,17,21,2.10
2019,02,03,17,22,2.00
2019,02,03,17,23,2.10
2019,02,03,17,24,2.10
2019,02,03,17,25,2.00
2019,02,03,17,26,2.00
2019,02,03,17,27,1.90
2019,02,03,17,28,1.80
2019,02,03,17,29,1.90
2019,02,03,17,30,1.80
2019,02,03,17,31,1.80
2019,02,03,17,32,1.80
2019,02,03,17,33,1.80
2019,02,03,17,34,1.80
2019,02,03,17,35,1.70
2019,02,03,17,36,1.60
2019,02,03,17,37,1.60
2019,02,03,17,38,1.60
2019,02,03,17,39,1.60
2019,02,03,17,40,1.60
2019,02,03,17,41,1.60
2019,02,03,17,42,1.60
2019,02,03,17,43,1.60
2019,02,03,17,44,1.50
2019,02,03,17,45,1.40
2019,02,03,17,46,1.30
2019,02,03,17,47,1.30
2019,02,03,17,48,1.30
2019,02,03,17,49,1.30
2019,02,03,17,50,1.30
2019,02,03,17,51,1.30
2019,02,03,17,52,1.30
2019,02,03,17,53,1.30
2019,02,03,17,54,1.30
2019,02,03,17,55,1.30
2019,02,03,17,56,1.30
2019,02,03,17,57,1.30
2019,02,03,17,58,1.30
2019,02,03,17,59,1.30
2019,02,03,18,00,1.40
2019,02,03,18,01,1.40
2019,02,03,18,02,1.40
2019,02,03,18,03,1.50
2019,02,03,18,04,1.50
2019,02,03,18,05,1.50
2019,02,03,18,06,1.40